Find Starlink 31532

NORAD ID: 59349 Int'l Des: 2024-060 Owner: SPXS Country: US Constellation: starlink operational
LEOCIRCULAR

現在のビュー

3D地球を読み込み中...

About Starlink 31532

Starlink 31532 (NORAD 59349) is a starlink constellation satellite (v2 mini) launched Mar 31, 2024 by SPXS of US. It operates in LEO, CIRCULAR orbit with a mass of 730.00 kg.

次回通過

Passes for default location (London). Set your location on the main map for personalized predictions.

高度履歴

Loading altitude history...

軌道要素

1 59349U 24060B 26265.37758742 .00000809 00000-0 38912-4 0 9990
2 59349 43.0012 229.0742 0001060 260.1766 99.8966 15.27576203140193
Epoch: Sep 22, 2026 • Age: 23 hours

現在のステータス

高度 493.7 km
遠地点 / 近地点 N/A
速度 7.62 km/s
衛星直下点 -38.07°S, 39.93°E
打ち上げ日 Mar 31, 2024
運用期間 2.4 years
タイプ internet

技術仕様

分類 Payload
質量 730.00 kg
乾燥質量 700.00 kg
長さ 0.30 m
スパン 29.00 m
形状 ? Box + pan
製造者 SPXS
バスタイプ Starlink V2M
フェーズステータス In Orbit
所有者/国 SPXS/US

Most Searched